Location: Unspecified
(0.0000°N, 0.0000°E)
Time: 19:31:43
(UTC+02:00)

Cosmos 1263 Rocket - Visible Passes

Search period start: 06 May 2015 00:00
Search period end: 16 May 2015 00:00
Orbit: 275 x 386 km, 82.9° (Epoch: 05 May)

Date Brightness Start Highest point End Pass type
(mag) Time Alt. Az. Time Alt. Az. Time Alt. Az.
06 May 2.4 20:27:03 10° SE 20:28:52 20° E 20:30:42 10° NE visible
07 May 1.2 20:45:40 10° S 20:48:01 69° W 20:50:21 10° N visible
08 May 4.4 21:05:31 10° WSW 21:06:55 14° W 21:08:14 10° NW visible
11 May 3.5 20:28:19 10° SSW 20:30:23 26° W 20:32:28 10° NNW visible
15 May 4.6 07:12:17 10° NE 07:14:31 20° E 07:16:47 10° SE visible
